Location: Augustenthal
(51.7167°N, 10.2833°E)
Time: 09:08:26
(UTC+00:00)

ATLAS CENTAUR R/B - Pass Details

Date: 18 May 2021
Orbit: 472 x 671 km, 64.6° (Epoch: 13 June)

Event Time Altitude Azimuth Distance (km) Brightness Sun altitude
Exits shadow 22:12:21 19° 227° (SW) 1,204 2.8 -17.2°
Maximum altitude 22:14:54 80° 313° (NW) 509 1.1 -17.3°
Drops below altitude 10° 22:18:47 10° 41° (NE) 1,746 4.3 -17.5°
Sets 22:21:02 0° 43° (NE) 2,669 5.3 -17.5°
